PROBA 1 1 26958U 01049B 25040.20163883 .00004484 00000-0 31655-3 0 9999 2 26958 97.9392 28.1115 0058272 348.6443 11.3463 15.04113414269486 CUTE-1 1 27844U 03031E 25039.95846568 .00000693 00000-0 32197-3 0 9995 2 27844 98.6788 49.7838 0009820 171.2693 188.8658 14.23810085121505 CUBESAT XI 4 1 27848U 03031J 25039.92177655 .00000583 00000-0 27735-3 0 9990 2 27848 98.6814 49.8422 0009391 188.1362 171.9666 14.23172046121209 GENESIS 1 1 29252U 06029A 25040.17121222 .00064741 00000-0 72327-3 0 9992 2 29252 64.5061 74.2764 0034095 302.1163 57.6673 15.61648556 27348 GENESIS 2 1 31789U 07028A 25040.23409779 .00048475 00000-0 66080-3 0 9998 2 31789 64.4822 122.2615 0014427 317.3808 42.6214 15.57115464974113 APRIZESAT 4 1 35684U 09041D 25040.14350873 .00001637 00000-0 20689-3 0 9997 2 35684 98.2036 99.3429 0045446 117.6639 242.9197 14.82605446838326 APRIZESAT 3 1 35686U 09041F 25040.11034911 .00003705 00000-0 34387-3 0 9996 2 35686 98.1356 167.7600 0063756 253.5456 105.8750 14.93552233842755 PROBA 2 1 36037U 09059B 25039.77428562 .00000725 00000-0 18087-3 0 9993 2 36037 98.2332 225.3555 0013386 9.4816 350.6631 14.54406660809797 APRIZESAT 5 1 37792U 11044E 25039.71142019 .00002059 00000-0 27687-3 0 9991 2 37792 98.2345 315.0392 0054579 149.2036 211.2396 14.79389152725781 APRIZESAT 6 1 37793U 11044F 25040.16939388 .00001594 00000-0 23804-3 0 9996 2 37793 98.2751 295.1423 0043180 220.4871 293.2854 14.75655448724554 PROBA V 1 39159U 13021A 25040.25720020 .00000198 00000-0 10502-3 0 9992 2 39159 98.3155 39.6502 0005102 126.9560 233.2088 14.23430407610980 CUSAT 1 1 39266U 13055B 25040.13961001 .00046421 -53598-6 59317-3 0 9994 2 39266 80.9524 240.5040 0335420 83.9427 279.9907 15.13509126596726 APRIZESAT 7 1 39416U 13066A 25039.82877993 .00003674 00000-0 38749-3 0 9995 2 39416 97.7048 357.9573 0038661 47.8789 312.5703 14.89365985607738 APRIZESAT 8 1 39425U 13066K 25039.92037542 .00002127 00000-0 24533-3 0 9992 2 39425 97.7611 351.8031 0049209 107.8236 252.8356 14.85822760606374 BUGSAT 1 1 40014U 14033E 25039.93785224 .00006167 00000-0 39105-3 0 9990 2 40014 98.0931 99.9535 0033411 58.5454 301.9032 15.08855724581281 SAUDISAT 4 1 40016U 14033G 25040.18994143 .00001900 00000-0 26416-3 0 9994 2 40016 97.6882 200.8307 0044753 237.1644 122.5255 14.78305631573222 TABLETSAT AURORA 1 40017U 14033H 25040.14255407 .00008469 00000-0 53962-3 0 9997 2 40017 98.0921 81.2538 0015023 93.5694 266.7251 15.08923446580641 APRIZESAT 9 1 40018U 14033J 25039.93823358 .00001254 00000-0 19604-3 0 9999 2 40018 97.8322 182.6753 0067308 347.3527 12.5990 14.73052257571042 APRIZESAT 10 1 40019U 14033K 25039.91791603 .00001100 00000-0 18309-3 0 9996 2 40019 97.8959 175.1677 0081194 49.7081 311.1186 14.69872316569940 AISAT 1 40054U 14034B 25040.17131920 .00012280 00000-0 10828-2 0 9994 2 40054 98.3070 274.9303 0009788 66.1392 294.0853 14.96552531573163 CANX-4 1 40055U 14034C 25040.13896050 .00002270 00000-0 30954-3 0 9994 2 40055 98.3763 250.8250 0013565 148.9879 211.2135 14.79673143571609 CANX-5 1 40056U 14034D 25040.14242785 .00002235 00000-0 30490-3 0 9992 2 40056 98.3766 250.8442 0013569 149.1676 211.0334 14.79685459571600 TDS 1 1 40076U 14037H 25039.78527823 .00014049 00000-0 10693-2 0 9992 2 40076 98.3320 343.9896 0009228 118.3315 241.8839 15.02193788573867 TIANTUO 2 1 40144U 14053B 25028.86647704 .12021452 24251-5 73766-4 0 9994 2 40144 97.0658 122.8215 0011882 260.3930 99.6035 16.54085112583623 TECHNOSAT 1 42829U 17042E 25040.05659509 .00004858 00000-0 39196-3 0 9995 2 42829 97.3895 214.6054 0012173 343.9625 16.1212 15.00251659412640 FLYING LAPTOP 1 42831U 17042G 25039.90809300 .00003896 00000-0 33646-3 0 9991 2 42831 97.3939 213.6910 0012475 6.5107 353.6276 14.97721254412539